Regional Weather Roundup
Issued by NWS

Home | Current Version | Previous Version | Text Only | Print | Product List | Glossary Off
Versions: 1 2 3 4 5 6 7 8 9 10 11 12 13 14 15 16 17 18 19 20 21 22 23 24 25 26 27 28 29 30 31 32 33 34 35 36 37 38 39 40 41 42 43 44 45 46 47 48 49 50

320
ASUS43 KLMK 251010
RWRKY
KENTUCKY REGIONAL WEATHER ROUNDUP
NATIONAL WEATHER SERVICE LOUISVILLE KY
600 AM EDT SUN SEP 25 2016

NOTE "FAIR" INDICATES FEW OR NO CLOUDS BELOW 12,000 FEET
WITH NO SIGNIFICANT WEATHER AND/OR OBSTRUCTIONS TO VISIBILITY.

KYZ001>023-026-027-061>063-070>075-251100-
WESTERN AND SOUTH CENTRAL KENTUCKY

CITY           SKY/WX    TMP DP  RH WIND       PRES   REMARKS
PADUCAH        CLEAR     68  66  93 CALM      30.05S FOG
HENDERSON      CLEAR     64  61  88 CALM      30.07S
OWENSBORO      NOT AVBL
HOPKINSVILLE   CLEAR     66  66 100 CALM      30.07R
BOWLING GREEN  CLEAR     67  65  93 CALM      30.08S FOG
GLASGOW        CLEAR    N/A N/A N/A E3        30.09S HAZE
$$

KYZ024-025-028>034-038-045-046-053-251100-
NORTH CENTRAL KENTUCKY

CITY           SKY/WX    TMP DP  RH WIND       PRES   REMARKS
LOUISVILLE/SDF CLEAR     71  66  84 CALM      30.09R
LOUISVILLE/LOU CLEAR     71  65  81 N3        30.10S
FORT KNOX      CLEAR     68  65  93 NE2       30.08R
$$

KYZ035>037-039>044-047>052-055>060-089>105-251100-
NORTHEAST KENTUCKY

CITY           SKY/WX    TMP DP  RH WIND       PRES   REMARKS
LEXINGTON      CLEAR     67  63  87 NE3       30.12R
COVINGTON      CLEAR     64  61  90 E6        30.13S
FRANKFORT      CLEAR     68  63  84 E5        30.10S
$$

KYZ054-064>069-076>088-106>120-251100-
SOUTHEAST KENTUCKY

CITY           SKY/WX    TMP DP  RH WIND       PRES   REMARKS
JACKSON        CLEAR     67  63  87 CALM      30.13R
LONDON         CLEAR     63  60  90 CALM      30.11R
SOMERSET       CLEAR     63  63 100 CALM      30.12R FOG
MIDDLESBORO    CLOUDY    61  61 100 CALM      30.14R FOG
MONTICELLO     PTSUNNY   61  61 100 NE9       30.13R FOG
$$





USA.gov is the U.S. government's official web portal to all federal, state and local government web resources and services.